Location: Bullfrog
(37.5121°N, 110.7330°W)
Time: 05:24:29
(UTC-06:00)

ISS - Visible Passes

Search period start: 27 September 2021 00:00
Search period end: 07 October 2021 00:00
Orbit: 417 x 423 km, 51.6° (Epoch: 27 September)

Date Brightness Start Highest point End Pass type
(mag) Time Alt. Az. Time Alt. Az. Time Alt. Az.
28 Sep -1.1 20:53:08 10° N 20:54:00 12° N 20:54:00 12° N visible
30 Sep -1.5 20:54:25 10° NNW 20:55:59 18° N 20:55:59 18° N visible
01 Oct -1.7 20:07:27 10° NNW 20:09:34 16° NNE 20:10:34 14° NE visible
01 Oct -0.3 21:43:24 10° NW 21:43:32 11° NW 21:43:32 11° NW visible
02 Oct -2.2 20:56:09 10° NW 20:58:11 32° NNW 20:58:11 32° NNW visible
03 Oct -2.7 20:08:59 10° NNW 20:12:02 32° NNE 20:12:55 27° ENE visible
04 Oct -2.3 20:58:18 10° WNW 21:00:44 36° W 21:00:44 36° W visible
05 Oct -3.8 20:10:53 10° NW 20:14:14 85° SW 20:15:42 31° SE visible
06 Oct -3.5 19:23:36 10° NW 19:26:54 53° NE 19:30:11 10° ESE visible
06 Oct -1.0 21:01:34 10° W 21:03:22 14° SW 21:03:50 13° SW visible
